[[{"header":{"parameterUnit":"m.s-1","parameterCategory":1,"la1":30.2991,"la2":30.254,"lo1":-89.0895,"lo2":-89.0444,"dy":0.0017,"dx":0.0017,"nx":28,"ny":28,"refTime":"2023-06-25T21:00:00:Z","depth":0,"parameterNumber":2,"parameterNumberName":"U-component_of_WINDS"},"data":[0,0,0,0,0,0,0,0,0,0,0,0,0,0,0,0,0,0,0,0,0,0,0,0,0,0,0,0,0,0,0,0,0,0,0,0,0,0,0,0,0,0,0,0,0,0,0,0,0,0,0,0,0,0,0,0,0,0,4.9395,4.9397,0,4.9533,4.9535,4.9536,4.9498,4.9495,4.9493,4.949,4.9633,4.9639,4.9645,0,0,0,0,0,0,0,0,0,0,0,0,0,4.9099,4.9105,4.9395,4.9397,4.9399,4.9533,4.9535,4.9537,4.9499,4.9495,4.9492,4.9489,4.9631,4.9638,4.9646,0,0,0,0,0,0,0,0,0,0,0,0,0,4.9232,4.9107,4.9395,4.9396,4.9397,4.9533,4.9535,4.9537,4.9499,4.9495,4.9491,4.9487,4.9628,4.9637,4.9647,4.979,0,0,4.9676,4.968,0,0,0,0,0,0,0,0,4.9224,4.9243,4.9394,4.9396,4.9398,4.9494,4.9483,4.9622,4.95,4.9461,4.949,4.9485,4.959,4.9603,4.9638,4.9797,4.9803,4.9677,4.9683,4.9687,4.969,0,0,0,0,0,0,0,4.9215,4.9236,4.945,4.9396,4.9399,4.9389,4.9404,4.9509,4.9547,4.9464,4.9461,4.9478,4.959,4.9629,4.9641,4.9805,4.9677,4.9685,4.9691,4.9695,5.0088,5.0093,0,0,0,0,0,0,4.9204,4.9229,4.9445,4.9454,4.9299,4.9398,4.9414,4.9467,4.9546,4.9554,4.9482,4.9476,4.9614,4.963,4.9646,4.9818,4.9687,4.9696,4.9702,5.0083,5.0089,5.0094,0,0,0,0,0,0,4.9198,4.9224,4.944,4.9341,4.9368,4.9408,4.9468,4.9472,4.951,4.9559,4.9566,4.9513,4.9611,4.9632,4.9754,4.9822,4.97,4.9709,5.0078,5.0085,5.0092,5.0164,0,0,0,0,0,0,4.919,4.9222,4.9277,4.9342,4.9373,4.9546,4.9472,4.9478,4.9527,4.9521,4.9591,4.9599,4.961,4.974,4.9764,4.9833,4.9717,5.0072,5.0081,5.0089,5.0155,5.0172,5.0187,0,0,0,0,0,4.9179,4.9292,4.928,4.9306,4.9442,4.955,4.9568,4.9578,4.9533,4.9588,4.9619,4.9597,4.9811,4.9753,4.9779,4.9853,5.0068,5.0079,5.0089,5.0148,5.0169,5.0186,0,0,0,0,0,0,4.9234,4.9301,4.9288,4.9425,4.9482,4.9543,4.9613,4.9599,4.9671,4.9662,4.9672,4.9688,4.9813,4.9845,4.9779,4.9995,4.9933,4.9949,4.9969,4.9989,5.0004,4.9994,4.9725,0,0,0,0,0,4.9262,4.9343,4.9397,4.9513,4.9543,4.9573,4.9621,4.9623,4.9683,4.9707,4.9747,4.9807,4.9887,4.994,5.0017,5.016,5.0174,5.0224,5.0239,5.0252,5.0265,5.0342,5.0365,5.0129,5.0129,5.0128,0,0,4.932,4.9367,4.9418,4.9525,4.957,4.9654,4.9594,4.9686,4.9748,4.9721,4.9838,4.987,4.9937,5.007,5.0131,5.0101,5.0334,5.0265,5.0275,5.0282,5.0356,5.0378,5.0398,5.0136,5.0135,5.0133,0,0,4.947,4.9514,4.9614,4.966,4.9728,4.9748,4.9772,4.9836,4.9856,4.9973,4.9954,5.0029,5.0168,5.0216,5.0259,5.0426,5.0408,5.0451,5.0533,5.0608,5.0626,5.0643,5.0701,5.0722,5.0465,5.0465,5.0465,0,4.9534,4.966,4.9668,4.9762,4.9809,4.9788,4.989,4.9934,5.0024,5.0058,5.0023,5.0196,5.024,5.0383,5.0424,5.046,5.0487,5.0443,5.0623,5.064,5.0655,5.0711,5.0733,5.047,5.0469,5.0469,5.0469,0,4.9735,4.9823,4.9896,4.9983,5.0039,5.0136,5.0159,5.0215,5.0213,5.0236,5.0356,5.0408,5.0494,5.0529,5.0528,5.0672,5.0651,5.062,5.0557,5.0682,5.0735,5.0756,5.0477,5.0475,5.0474,5.0473,0,0,4.9923,5.0012,5.0039,5.0077,5.015,5.0218,5.0315,5.0399,5.0446,5.0509,5.059,5.0708,5.0679,5.0727,5.0732,5.0798,5.0926,5.0758,5.076,5.0787,5.1087,5.1108,5.1133,5.0914,5.0919,5.0922,5.108,0,5.0078,5.0246,5.0256,5.0409,5.049,5.0471,5.0555,5.0609,5.0633,5.0705,5.0733,5.0815,5.0772,5.0801,5.0865,5.0897,5.0986,5.0886,5.0989,5.0993,5.0971,5.1161,5.1185,5.1332,5.1101,5.1105,5.1107,0,5.0281,5.0349,5.051,5.0571,5.0605,5.068,5.0757,5.0827,5.0888,5.0901,5.0955,5.095,5.1048,5.0983,5.1119,5.1051,5.1094,5.1116,5.1121,5.113,5.1057,5.1174,5.1379,5.1401,5.114,5.1137,5.1135,0,5.04,5.0532,5.0645,5.0679,5.0753,5.0806,5.084,5.0896,5.0946,5.1014,5.1046,5.1125,5.1168,5.1229,5.1246,5.1197,5.1381,5.1318,5.1394,5.1394,5.1433,5.143,5.1647,5.1463,5.1463,5.1462,5.1462,0,5.0571,5.067,5.0699,5.0768,5.0878,5.0889,5.0998,5.1028,5.1079,5.1154,5.1143,5.1213,5.1231,5.1306,5.1319,5.1429,5.1449,5.1462,5.1464,5.1462,5.146,5.149,5.1479,5.1468,5.1467,5.1466,5.1465,0,5.0722,5.0746,5.0867,5.0928,5.0945,5.1023,5.1075,5.1142,5.1164,5.1259,5.1282,5.1318,5.1405,5.1427,5.1531,5.154,5.1669,5.1663,5.1649,5.1648,5.1723,5.1715,5.1965,5.1997,5.1794,5.1796,5.1797,0,5.0829,5.0905,5.0973,5.1022,5.1057,5.1137,5.1187,5.1201,5.1253,5.1328,5.1386,5.1471,5.1539,5.1678,5.1714,5.1793,5.1788,5.187,5.1799,5.1795,5.1787,5.1782,5.1789,5.1883,5.1885,5.1887,5.1888,0,5.1017,5.1024,5.1097,5.1174,5.1234,5.1295,5.1354,5.1395,5.1417,5.1477,5.1564,5.1618,5.1723,5.1807,5.1887,5.1922,5.1909,5.191,5.1932,5.193,5.1918,5.1924,5.1683,5.1904,5.1902,5.1901,5.19,5.19,5.1149,5.1214,5.1272,5.1353,5.1398,5.1453,5.1518,5.1549,5.1622,5.1708,5.1712,5.1807,5.1866,5.1971,5.2011,5.2085,5.2061,5.2092,5.21,5.2107,5.2113,5.1907,5.21,5.21,5.2099,5.2099,5.2099,0,5.1334,5.137,5.1444,5.1526,5.159,5.1572,5.1635,5.169,5.1773,5.1829,5.1896,5.1997,5.2079,5.212,5.2201,5.2253,5.2249,5.2274,5.2269,5.2277,5.2131,5.2104,5.2276,5.2275,5.2275,5.2275,5.2275,5.2275,5.1438,5.1547,5.1562,5.1694,5.1729,5.1822,5.186,5.191,5.1954,5.2067,5.2134,5.216,5.221,5.2295,5.2369,5.2379,5.2409,5.2436,5.2443,5.2306,5.2288,5.2271,5.2245,5.2443,5.2443,5.2583,5.2584,5.2585]},{"header":{"parameterUnit":"m.s-1","parameterCategory":1,"la1":30.2991,"la2":30.254,"lo1":-89.0895,"lo2":-89.0444,"dy":0.0017,"dx":0.0017,"nx":28,"ny":28,"refTime":"2023-06-25T21:00:00:Z","depth":0,"parameterNumber":3,"parameterNumberName":"V-component_of_WINDS"},"data":[0,0,0,0,0,0,0,0,0,0,0,0,0,0,0,0,0,0,0,0,0,0,0,0,0,0,0,0,0,0,0,0,0,0,0,0,0,0,0,0,0,0,0,0,0,0,0,0,0,0,0,0,0,0,0,0,0,0,1.5637,1.5637,0,1.5634,1.5634,1.5634,1.5592,1.5591,1.559,1.5589,1.5586,1.5587,1.5588,0,0,0,0,0,0,0,0,0,0,0,0,0,1.5607,1.5608,1.5637,1.5637,1.5637,1.5634,1.5634,1.5634,1.5592,1.5591,1.5589,1.5588,1.5586,1.5587,1.5588,0,0,0,0,0,0,0,0,0,0,0,0,0,1.5614,1.5608,1.5637,1.5616,1.5614,1.5634,1.5634,1.5634,1.5592,1.5591,1.5589,1.5588,1.5586,1.5587,1.5588,1.5629,0,0,1.5593,1.5593,0,0,0,0,0,0,0,0,1.5613,1.5615,1.5619,1.5617,1.5615,1.5611,1.5622,1.5632,1.5593,1.5601,1.5589,1.5587,1.5596,1.5596,1.5599,1.5629,1.5628,1.5593,1.5594,1.5594,1.5595,0,0,0,0,0,0,0,1.5613,1.5615,1.5636,1.5619,1.5617,1.5606,1.5606,1.5624,1.5607,1.56,1.5597,1.5597,1.5595,1.5598,1.5599,1.5628,1.5593,1.5594,1.5595,1.5595,1.5689,1.5691,0,0,0,0,0,0,1.5616,1.5615,1.5636,1.5636,1.561,1.5608,1.5607,1.5614,1.5607,1.5604,1.5598,1.5595,1.5597,1.5597,1.5599,1.5645,1.5594,1.5595,1.5596,1.5687,1.5689,1.5691,0,0,0,0,0,0,1.5615,1.5618,1.5636,1.5624,1.5626,1.561,1.5619,1.5615,1.5618,1.5606,1.5603,1.5605,1.5595,1.5597,1.5621,1.5644,1.5596,1.5597,1.5685,1.5688,1.569,1.5738,0,0,0,0,0,0,1.5614,1.5618,1.5633,1.5625,1.5627,1.5659,1.562,1.5616,1.5621,1.5616,1.5611,1.5609,1.5594,1.5619,1.5623,1.5645,1.5598,1.5683,1.5687,1.5689,1.5734,1.5741,1.5748,0,0,0,0,0,1.5613,1.5647,1.5634,1.5637,1.5646,1.566,1.5661,1.5643,1.5623,1.5638,1.563,1.5609,1.5641,1.5622,1.5625,1.5649,1.5682,1.5686,1.5689,1.5731,1.574,1.5748,0,0,0,0,0,0,1.566,1.5646,1.5631,1.5663,1.5663,1.5653,1.5672,1.5654,1.566,1.5656,1.5634,1.5633,1.566,1.5657,1.5636,1.5687,1.5658,1.5662,1.5688,1.5697,1.5703,1.5704,1.56,0,0,0,0,0,1.5673,1.5686,1.5674,1.5703,1.5704,1.5688,1.5694,1.568,1.5679,1.5679,1.5672,1.5672,1.5682,1.5689,1.5697,1.5733,1.5731,1.575,1.5757,1.5763,1.5767,1.5785,1.5793,1.5703,1.5703,1.5703,0,0,1.5702,1.5696,1.5706,1.5712,1.571,1.5724,1.5688,1.5704,1.5714,1.5681,1.5704,1.5699,1.5697,1.5727,1.574,1.5725,1.5791,1.5768,1.5772,1.5774,1.5789,1.5798,1.5806,1.5706,1.5705,1.5705,0,0,1.5762,1.5759,1.5782,1.5781,1.5778,1.5767,1.5773,1.5765,1.576,1.5782,1.5757,1.5768,1.5786,1.5786,1.5788,1.5845,1.5826,1.5849,1.5885,1.5902,1.5909,1.5915,1.5935,1.5943,1.5853,1.5853,1.5853,0,1.5798,1.5818,1.5797,1.5815,1.5818,1.5787,1.5811,1.5811,1.5811,1.5814,1.5797,1.5818,1.5815,1.5843,1.5857,1.586,1.5865,1.585,1.591,1.5916,1.5921,1.594,1.5948,1.5856,1.5855,1.5855,1.5855,0,1.5862,1.5876,1.5895,1.5896,1.5901,1.5922,1.5904,1.5911,1.5897,1.5887,1.5909,1.5904,1.5911,1.5916,1.5903,1.5943,1.5934,1.5914,1.5884,1.5933,1.595,1.5957,1.586,1.5859,1.5858,1.5857,0,0,1.5952,1.5939,1.5947,1.5946,1.594,1.595,1.5969,1.5974,1.5981,1.5982,1.5997,1.6012,1.5993,1.5995,1.5981,1.5996,1.6041,1.5974,1.5973,1.5986,1.6084,1.6099,1.6108,1.6028,1.6029,1.603,1.6084,0,1.6009,1.604,1.6021,1.6055,1.6067,1.6038,1.6054,1.6052,1.6043,1.6052,1.6042,1.6053,1.6027,1.6028,1.6042,1.6033,1.606,1.6028,1.6041,1.6042,1.6043,1.6117,1.6133,1.6184,1.609,1.6092,1.6092,0,1.608,1.6083,1.6118,1.6108,1.6112,1.6127,1.613,1.6139,1.6135,1.6128,1.613,1.6111,1.6128,1.6099,1.6122,1.6101,1.6105,1.6101,1.6102,1.6103,1.607,1.6119,1.62,1.6207,1.6103,1.6102,1.6101,0,1.6142,1.6154,1.6176,1.6177,1.6166,1.6177,1.6173,1.6168,1.6172,1.6174,1.6176,1.6181,1.6184,1.6188,1.6171,1.6151,1.6196,1.6165,1.619,1.619,1.6201,1.6201,1.6283,1.6204,1.6204,1.6204,1.6203,0,1.6208,1.623,1.6204,1.6217,1.6241,1.6219,1.6243,1.6236,1.6231,1.6243,1.6218,1.6229,1.6206,1.6215,1.6201,1.6222,1.6224,1.6218,1.6214,1.622,1.6221,1.6223,1.6219,1.6206,1.6205,1.6205,1.6204,0,1.6281,1.6264,1.6286,1.6273,1.6271,1.6289,1.6278,1.629,1.6278,1.6293,1.6295,1.6278,1.6287,1.627,1.6278,1.6269,1.6297,1.6288,1.6299,1.6296,1.6321,1.6319,1.6408,1.6418,1.6333,1.6334,1.6334,0,1.6324,1.634,1.6329,1.6334,1.6331,1.6341,1.6344,1.6323,1.6327,1.6324,1.6336,1.6343,1.6347,1.6362,1.6351,1.6356,1.6346,1.6377,1.6347,1.6352,1.6346,1.6345,1.6346,1.6383,1.6384,1.6385,1.6386,0,1.6402,1.6393,1.6398,1.6401,1.6406,1.6407,1.6406,1.6412,1.6389,1.6396,1.6404,1.6407,1.6413,1.642,1.6422,1.6418,1.6398,1.6395,1.6401,1.6408,1.6413,1.641,1.6315,1.6394,1.6393,1.6392,1.6392,1.6391,1.6461,1.6474,1.6467,1.6474,1.6471,1.6471,1.6481,1.647,1.6477,1.648,1.6467,1.6478,1.6473,1.6473,1.647,1.6479,1.6465,1.6474,1.6476,1.6478,1.6482,1.6411,1.6479,1.6479,1.6479,1.6478,1.6478,0,1.6538,1.6531,1.6538,1.6537,1.6542,1.6522,1.652,1.6526,1.6536,1.6532,1.6537,1.6546,1.6552,1.654,1.6544,1.6553,1.6544,1.6554,1.6554,1.6553,1.6495,1.6489,1.6562,1.6562,1.6562,1.6562,1.6561,1.6561,1.6578,1.6598,1.6587,1.6605,1.6598,1.6609,1.6609,1.6608,1.6605,1.6616,1.6621,1.6612,1.6605,1.6608,1.6613,1.6609,1.6612,1.6626,1.6619,1.6565,1.6557,1.6549,1.6544,1.6626,1.6627,1.6676,1.6676,1.6677]}]]